RH
44 42 40 38 36 35 35 37 38 39 41 41 41 41 40 41 43 44 45 45 53 54 54 57 65 68 74 80 85 89 92 96 97 92 92 90 84 77 71 71 76 78 71
41 42 42 41 40 40 42 42 42 43 44 44 45 44 44 45 47 50 52 55 57 60 61 62 64 64 66 68 74 83 89 90 98 92 86 95 94 89 82 84 80 87 88
42 44 46 46 48 49 49 47 42 40 44 41 33 28 37 51 56 57 60 62 64 64 66 68 70 69 69 71 75 76 77 80 85 92 86 85 90 92 94 95 99 95 92
48 49 52 54 53 51 45 43 42 40 36 27 28 48 57 59 59 64 72 76 75 74 73 74 74 74 77 82 90 89 86 85 85 85 86 83 85 91 100 96 100 100 100
52 54 56 56 52 49 44 41 38 34 38 44 55 57 58 59 57 75 86 86 84 80 77 77 79 80 82 86 92 90 89 89 89 83 82 83 80 91 98 96 98 100 100
54 57 57 55 53 49 43 43 47 53 57 58 58 59 60 59 63 82 90 90 86 83 82 80 81 81 81 81 82 83 88 91 91 91 85 76 82 82 94 96 100 99 100
57 55 54 53 52 50 52 53 54 56 58 59 60 59 58 59 64 80 87 89 86 85 83 82 79 81 84 84 85 86 85 88 88 90 94 93 93 84 95 96 100 98 100
54 51 50 50 50 51 52 54 54 54 57 58 57 58 59 62 67 78 85 86 80 80 83 84 82 84 87 94 98 98 98 96 96 97 97 98 99 100 100 98 98 100 100
54 54 54 51 49 50 52 51 51 54 54 55 57 61 64 65 66 70 81 82 81 82 85 83 83 84 92 95 100 100 96 99 100 100 100 100 98 97 98 100 100 100 100
61 60 52 47 47 48 49 50 52 52 53 57 57 58 63 64 65 67 75 84 81 81 84 87 83 87 91 95 100 95 100 99 100 100 100 99 100 100 100 100 100 100 99
50 53 50 48 46 48 51 47 48 51 55 56 57 57 56 60 63 68 79 86 82 84 88 89 91 94 93 100 100 100 99 100 100 99 100 100 100 100 100 100 100 100 98
44 47 48 49 47 50 52 49 49 52 55 57 58 56 58 58 61 66 74 83 80 84 87 89 91 95 95 100 100 100 100 100 100 100 99 99 98 98 96 96 99 100 100
44 44 47 50 49 54 54 52 52 53 54 55 56 58 60 62 63 64 71 75 80 84 84 88 94 96 98 99 99 100 100 100 100 98 95 96 96 96 96 97 99 100 99
45 45 47 50 52 53 55 55 53 53 53 55 60 67 70 68 68 69 74 82 80 89 92 95 98 96 99 100 100 100 99 100 100 99 97 96 98 97 93 96 99 99 99
47 47 48 48 51 52 53 53 54 57 59 70 78 81 80 73 68 71 77 80 85 90 96 97 96 97 100 100 100 100 100 99 98 95 98 99 99 97 96 96 97 98 97
53 49 49 51 52 53 52 52 53 59 64 72 74 75 71 70 73 77 81 81 93 93 96 93 94 98 100 100 100 99 99 98 98 100 100 99 99 99 99 99 98 98 96
56 53 51 54 53 54 57 62 66 68 64 62 66 68 70 74 70 74 84 89 88 88 91 94 91 98 100 100 99 99 98 98 98 99 99 99 99 98 99 98 98 95 98
63 63 65 63 64 68 71 70 69 68 69 69 66 67 71 67 69 80 86 84 91 93 97 95 97 100 100 100 99 99 98 98 100 99 99 100 98 100 98 97 97 96 97
74 68 67 73 77 74 72 70 70 68 66 67 68 70 69 70 74 81 85 89 97 98 98 95 97 100 100 99 99 99 98 97 98 100 99 100 99 96 97 96 95 98 97
81 79 81 79 73 70 68 68 67 66 67 70 72 71 73 77 80 83 92 90 94 96 95 95 100 100 99 100 99 98 98 98 98 100 98 100 99 98 98 97 97 98 98
83 80 78 79 75 73 70 70 68 68 72 72 72 73 71 76 81 88 93 92 94 98 100 100 100 99 99 99 99 98 98 97 99 99 99 100 100 100 100 97 97 97 94
90 85 80 78 76 73 71 71 74 73 74 75 76 76 74 78 83 85 90 98 99 100 100 99 98 99 99 99 98 98 98 97 98 100 99 98 100 100 100 100 100 96 96
86 82 79 77 76 75 76 75 75 76 76 76 79 80 79 79 80 83 87 99 100 98 98 98 98 98 98 98 98 98 98 97 98 100 99 98 99 100 100 100 97 97 95
88 85 82 82 83 84 86 84 80 78 76 78 78 78 77 77 81 85 85 97 98 97 98 98 98 98 99 98 98 98 98 98 97 98 100 100 98 100 100 97 96 95 95
92 92 91 92 93 90 89 88 84 82 82 80 79 80 81 85 90 90 89 92 96 96 97 98 98 98 98 98 98 98 98 97 92 91 91 100 99 98 100 94 94 96 94
94 93 92 90 90 88 87 87 87 86 87 87 88 91 92 93 94 94 86 92 98 96 97 97 98 97 97 98 98 98 97 95 93 93 95 97 100 100 100 92 95 95 92
Wind_Speed
16 16 16 15 14 13 12 11 10 8 7 7 7 7 8 9 10 11 11 12 14 15 16 17 19 20 21 21 22 23 24 23 20 35 28 27 31 31 33 34 31 27 28
16 15 15 14 13 12 11 9 8 7 7 8 9 10 11 12 13 12 13 13 15 17 18 19 21 21 23 24 24 24 24 24 26 32 33 28 28 30 33 34 36 29 26
14 14 14 13 11 10 9 8 8 8 7 8 10 12 13 13 12 10 12 14 15 16 17 19 22 23 24 24 26 26 26 27 27 29 35 30 33 28 29 34 31 33 28
13 13 13 11 10 9 9 8 8 8 9 11 11 11 11 11 11 10 15 16 17 18 19 21 22 22 24 26 30 31 31 31 30 29 30 30 29 27 30 29 23 28 28
12 12 11 10 9 8 8 7 8 9 9 9 9 9 10 10 9 15 16 18 19 20 21 21 23 25 29 29 28 28 28 31 31 30 30 28 30 23 20 24 28 23 20
11 11 9 8 7 8 8 8 9 9 8 8 9 11 11 10 14 15 16 19 20 21 22 25 26 28 28 30 33 34 34 33 35 30 30 29 30 29 29 27 22 13 3
11 9 8 8 8 8 7 7 6 7 8 9 10 12 14 15 17 18 20 20 20 21 24 26 29 28 31 35 36 34 34 33 34 36 34 34 30 30 31 28 16 12 5
10 9 8 7 6 6 6 6 7 8 9 11 13 15 17 18 19 20 22 23 23 23 24 27 29 35 32 34 38 38 37 34 33 32 35 34 32 32 22 15 10 12 12
9 8 7 6 5 6 6 8 10 11 12 13 14 16 17 20 21 21 22 23 24 25 25 25 28 36 36 38 37 33 36 30 18 5 0 2 1 1 3 10 13 14 3
7 6 5 5 5 6 8 9 10 11 12 13 15 15 16 19 19 22 22 25 25 27 27 28 27 32 34 40 25 27 26 10 2 3 3 2 2 6 6 7 11 13 7
5 4 4 5 6 6 7 9 10 11 12 14 15 16 17 16 18 19 22 24 25 29 30 33 30 33 36 38 27 23 15 10 7 2 0 2 1 1 2 2 5 6 7
4 4 3 4 5 6 8 9 11 12 14 15 16 18 16 18 20 22 25 24 25 29 33 33 37 38 45 38 24 22 14 13 6 4 4 3 3 3 2 1 1 3 6
4 3 3 5 5 7 8 10 12 13 13 15 17 19 21 21 23 24 23 24 28 32 33 37 41 41 43 28 23 18 14 11 8 5 3 2 1 1 1 1 1 1 4
2 3 4 5 7 7 9 9 11 13 14 16 18 20 22 24 23 22 25 31 30 32 33 36 40 40 37 24 20 17 16 11 6 5 4 3 2 2 0 0 2 3 4
3 4 5 6 8 10 10 12 13 14 14 18 20 21 25 27 26 30 32 33 33 34 38 35 32 32 27 23 18 18 14 10 6 4 3 4 4 2 1 1 3 4 3
4 5 6 9 10 11 13 15 14 16 18 20 20 22 26 28 31 31 32 33 35 35 34 29 28 28 23 21 16 13 10 8 6 6 5 5 4 4 3 3 4 5 7
5 8 9 10 11 13 14 15 18 17 17 18 18 21 24 29 30 32 33 35 35 32 23 23 26 26 25 23 19 16 11 9 7 7 7 7 6 6 6 6 7 9 10
7 9 10 10 11 12 14 15 18 18 19 19 18 21 24 27 30 31 32 33 28 24 22 24 26 25 26 22 18 15 11 8 8 9 8 8 7 7 8 7 7 10 12
7 9 9 10 12 14 16 15 17 19 20 22 23 21 21 25 30 28 26 24 26 27 26 27 26 26 25 20 15 15 12 10 10 10 9 9 8 8 9 8 9 11 13
8 9 10 11 12 13 14 15 17 18 19 20 21 22 24 26 28 30 27 26 26 28 28 28 28 26 24 20 15 15 12 12 11 11 10 10 9 9 9 11 12 14 13
8 10 11 12 11 12 13 15 16 18 20 20 22 21 26 28 26 26 28 28 29 32 32 29 27 26 20 16 14 15 14 13 12 12 13 12 10 10 10 11 12 13 15
9 9 11 12 13 13 13 15 17 19 19 21 22 23 26 24 24 25 27 29 31 34 31 25 19 12 9 11 12 14 16 14 15 15 15 13 11 11 11 12 13 14 15
11 12 13 13 13 14 16 16 18 18 19 21 22 23 23 23 24 26 28 31 32 35 29 21 16 11 6 6 9 13 16 14 15 16 17 14 13 13 13 14 15 15 15
12 13 13 14 15 17 17 18 18 20 21 21 21 22 22 23 24 27 29 31 31 33 25 20 15 11 7 5 7 10 11 10 14 15 15 15 13 14 14 16 15 15 16
14 16 17 17 16 16 18 18 19 20 20 20 21 22 23 23 25 26 27 29 28 30 27 18 14 9 6 4 7 10 9 10 14 15 13 13 14 14 15 16 16 16 17
16 16 17 17 18 18 19 20 20 21 21 21 22 22 23 23 24 25 27 26 25 27 25 19 11 8 4 2 7 10 11 12 14 13 12 12 15 14 17 16 16 18 17
Wind_Direction
103 103 102 99 98 96 91 82 75 66 49 35 18 9 5 360 353 347 339 334 330 324 318 314 308 303 298 294 291 286 276 269 269 287 283 280 278 269 258 249 246 237 242
107 104 98 96 93 89 85 78 72 61 41 22 10 3 358 354 350 346 340 333 326 321 317 314 309 309 303 297 292 289 284 275 269 284 290 284 272 269 255 249 247 240 238
106 103 99 94 92 86 79 71 60 48 30 14 5 358 350 342 337 336 331 325 320 314 312 310 308 309 305 304 302 298 291 285 279 275 282 283 281 274 254 244 242 236 237
107 103 99 93 87 81 70 57 44 32 18 6 357 344 333 328 329 332 334 328 323 317 314 312 309 307 307 311 308 303 300 297 293 283 279 285 281 280 250 251 235 229 229
106 100 92 88 83 75 63 49 33 22 10 356 338 328 329 330 331 333 337 327 320 317 315 313 311 309 309 305 299 301 299 298 293 289 288 285 281 274 241 238 242 232 208
103 95 91 86 78 65 50 36 22 10 353 341 332 333 333 329 319 330 332 324 316 311 310 312 310 310 310 308 301 299 290 288 283 283 281 283 281 275 255 252 226 195 169
105 96 84 73 59 47 39 29 12 351 342 338 336 333 329 327 322 329 331 327 315 311 310 309 310 312 313 312 306 302 300 296 287 287 280 277 268 274 262 248 199 171 146
100 89 78 69 57 38 28 13 356 347 342 338 336 335 327 324 324 326 329 328 319 313 314 310 309 317 315 313 311 304 299 292 289 284 285 282 280 275 227 192 179 150 138
97 84 68 56 42 26 15 1 352 345 342 337 331 325 323 318 324 327 327 324 317 315 314 312 312 317 314 317 314 312 311 303 291 274 203 14 333 308 178 156 163 151 113
91 77 58 38 24 13 2 351 343 339 329 326 321 318 317 312 320 320 326 326 318 317 315 313 311 314 314 320 309 323 318 295 222 258 259 207 127 106 142 193 193 168 128
95 78 44 20 4 353 346 340 334 328 323 321 317 315 314 314 316 316 318 317 317 315 313 312 311 314 312 315 291 304 292 242 260 245 181 75 71 151 179 186 181 193 180
90 62 29 356 346 339 336 331 329 329 325 321 320 317 316 317 317 315 315 313 314 312 311 308 307 309 315 310 281 293 276 257 237 175 120 85 72 46 32 29 218 198 207
64 33 357 342 332 329 327 328 330 330 324 321 319 318 316 314 313 313 312 315 314 312 307 305 306 306 309 292 282 270 255 242 219 207 179 168 135 97 71 101 143 168 213
35 351 335 331 326 325 322 319 316 316 318 319 317 310 309 310 310 313 316 316 314 312 309 308 307 304 304 275 276 241 237 227 226 225 192 165 118 97 53 162 139 145 129
354 338 328 323 320 317 311 305 303 298 298 306 303 304 308 307 307 311 313 312 310 308 309 305 302 302 289 270 248 222 218 214 213 205 180 130 123 131 98 122 127 108 98
330 323 321 318 313 308 306 304 302 299 299 300 299 301 303 300 309 315 313 310 310 310 307 301 297 297 282 267 239 220 204 198 197 163 150 131 139 151 143 117 109 108 111
313 311 311 307 304 304 306 306 306 307 304 302 303 306 307 311 317 317 317 315 314 312 302 296 301 294 284 267 241 220 208 197 185 152 143 144 146 138 124 114 114 119 115
299 294 291 295 295 296 296 300 303 307 309 309 312 314 314 318 321 322 320 320 320 313 297 298 301 295 286 265 228 209 198 186 165 152 148 149 146 137 119 119 132 135 125
278 274 279 284 288 291 296 300 300 305 306 309 314 315 319 322 322 323 323 320 315 310 308 305 300 294 288 248 225 209 196 181 171 152 152 152 145 141 127 136 139 137 128
278 276 286 292 293 294 298 302 303 302 303 305 307 314 321 325 325 323 320 321 319 314 309 306 299 294 290 243 218 202 181 170 167 153 153 151 149 146 147 144 142 133 124
290 292 297 293 296 296 298 297 299 300 299 304 308 312 316 319 316 313 318 319 322 319 313 311 303 301 281 230 208 196 185 178 169 159 154 151 148 144 145 147 147 140 138
290 294 294 293 292 294 294 295 296 298 300 303 309 313 315 314 312 312 316 319 320 323 323 327 323 303 256 225 205 193 187 178 170 163 158 155 152 153 149 147 146 143 138
290 288 285 286 287 291 294 293 293 295 301 304 305 310 311 313 313 314 316 320 323 330 333 333 333 326 301 247 223 208 195 188 185 173 160 156 157 156 157 157 155 150 149
282 279 280 285 287 285 286 291 294 296 298 299 302 304 306 309 312 313 316 323 329 334 339 335 336 329 310 254 211 203 199 193 186 180 170 157 157 158 160 161 159 156 151
275 273 272 274 276 282 287 289 289 290 292 295 298 299 301 304 308 311 316 324 332 333 342 338 336 329 316 253 198 185 179 175 176 175 172 163 157 156 164 163 160 157 153
292 289 287 287 286 286 286 287 287 289 291 292 294 295 297 299 302 307 314 324 327 331 340 342 344 340 319 214 176 165 154 157 164 168 172 167 159 156 165 164 162 158 159